Location: San Vito
(41.8833°N, 12.9833°E)
Time: 23:57:01
(UTC+00:00)

STARLINK-75 - Pass Details

Date: 17 November 2019
Orbit: 529 x 532 km, 53.0° (Epoch: 07 December)

Event Time Altitude Azimuth Distance (km) Brightness Sun altitude
Exits shadow 05:10:40 - 259° (W) 1,829 5.7 -9.3°
Reaches altitude 10° 05:10:49 10° 260° (W) 1,775 5.7 -9.3°
Maximum altitude 05:14:36 41° 331° (NNW) 787 4.1 -8.6°
Drops below altitude 10° 05:18:32 10° 43° (NE) 1,832 6.6 -7.9°
Sets 05:20:55 0° 51° (NE) 2,759 7.7 -7.5°
